IRIDIUM 181

Last updated on Fri Sep 11 2026 00:03:06 GMT+0000 (Coordinated Universal Time)

1 56726U 23068S 26253.45093667 .00000197 00000+0 52532-4 0 9990 2 56726 86.4535 21.1370 0002081 97.1875 262.9563 14.43310408174734
UTC large
Height (km)
Speed (km/s)
/
Latitude / Longitude
Inclination (degrees)
Orbital Period (minutes)
Azimuth
Elevation
Range (km)
Doppler Factor

Next 0 passes for location: London (51.5072 / 0.1276)

No passes found over London.
IRIDIUM 181